This demonstration page uses our WeatherBlox Daily Observations layout. Learn more.

Left ArrowRight Arrow

Hourly Observations for April 17, 2016

Temp ( °F °C ) Dew Point ( °F °C ) Humidity (%) Winds ( mph kmh ) Pressure ( in mb ) Visibility ( mi km ) Precip ( " mm )
12:51 am 00:51 Clear 53 11.7 27 -2.8 37 37 W 9 15 29.90 1012 10 16 0.00 0.00
1:51 am 01:51 Clear 51 10.6 30 -1.1 44 44 W 9 15 29.90 1013 10 16 0.00 0.00
2:51 am 02:51 Mostly Clear 52 11.1 28 -2.2 40 40 NNE 7 11 29.91 1013 10 16 0.00 0.00
3:51 am 03:51 Mostly Clear 49 9.4 29 -1.7 46 46 NW 6 9 29.91 1013 10 16 0.00 0.00
4:51 am 04:51 Mostly Cloudy 49 9.4 30 -1.1 48 48 WNW 9 15 29.93 1014 10 16 0.00 0.00
5:51 am 05:51 Partly Cloudy 45 7.2 30 -1.1 56 56 VRB 3 6 29.96 1015 10 16 0.00 0.00
6:51 am 06:51 Mostly Sunny 52 11.1 31 -0.6 45 45 N 3 6 29.98 1015 10 16 0.00 0.00
7:51 am 07:51 Sunny 57 13.9 31 -0.6 37 37 NW 6 9 29.98 1015 10 16 0.00 0.00
8:51 am 08:51 Sunny 61 16.1 27 -2.8 27 27 NW 10 17 29.96 1015 10 16 0.00 0.00
9:51 am 09:51 Sunny 64 17.8 27 -2.8 25 25 W 7 11 29.95 1014 10 16 0.00 0.00
10:51 am 10:51 Sunny 65 18.3 26 -3.3 23 23 NNW 8 13 29.94 1014 10 16 0.00 0.00
11:51 am 11:51 Sunny 70 21.1 23 -5 17 17 WNW 15 24 29.90 1013 10 16 0.00 0.00
12:51 pm 12:51 Mostly Sunny 71 21.7 23 -5 16 16 W 8 13 29.89 1012 10 16 0.00 0.00
1:51 pm 13:51 Sunny 72 22.2 23 -5 16 16 W 9 15 29.88 1012 10 16 0.00 0.00
2:51 pm 14:51 Sunny 73 22.8 24 -4.4 16 16 W 9 15 29.87 1011 10 16 0.00 0.00
3:51 pm 15:51 Sunny 72 22.2 22 -5.6 15 15 NNW 13 20 29.87 1011 10 16 0.00 0.00
4:51 pm 16:51 Sunny 72 22.2 22 -5.6 15 15 WNW 9 15 29.87 1012 10 16 0.00 0.00
5:51 pm 17:51 Sunny 71 21.7 22 -5.6 16 16 WNW 12 19 29.89 1012 10 16 0.00 0.00
6:51 pm 18:51 Clear 68 20 22 -5.6 17 17 NW 7 11 29.89 1012 10 16 0.00 0.00
7:51 pm 19:51 Clear 63 17.2 23 -5 22 22 NW 5 7 29.91 1013 10 16 0.00 0.00
8:51 pm 20:51 Clear 61 16.1 24 -4.4 24 24 VRB 3 6 29.94 1014 10 16 0.00 0.00
9:51 pm 21:51 Clear 62 16.7 25 -3.9 24 24 W 7 11 29.96 1015 10 16 0.00 0.00
10:51 pm 22:51 Clear 57 13.9 27 -2.8 32 32 WNW 7 11 29.98 1015 10 16 0.00 0.00
11:51 pm 23:51 Clear 53 11.7 27 -2.8 37 37 NW 7 11 29.98 1015 10 16 0.00 0.00

Powered by AerisWeather